Precipitable_Water
1.11 1.08 1.03 0.94 0.85 0.81 0.80 0.79 0.81 0.83 0.85 0.85 0.81 0.81 0.81 0.83 0.85 0.84 0.83 0.82 0.79 0.75 0.72 0.69 0.71 0.73 0.73 0.72 0.69 0.67 0.67 0.68 0.70 0.72 0.72 0.75 0.80 0.85 0.87 0.90 0.93 0.94
1.09 1.10 1.03 0.94 0.86 0.82 0.81 0.83 0.83 0.85 0.85 0.85 0.82 0.79 0.77 0.80 0.83 0.83 0.81 0.78 0.75 0.73 0.69 0.66 0.69 0.70 0.69 0.67 0.64 0.62 0.62 0.63 0.64 0.69 0.68 0.70 0.74 0.79 0.79 0.84 0.88 0.92
1.07 1.07 0.98 0.89 0.84 0.81 0.83 0.86 0.89 0.88 0.87 0.84 0.80 0.76 0.73 0.80 0.80 0.82 0.80 0.77 0.74 0.71 0.67 0.64 0.63 0.63 0.64 0.65 0.62 0.59 0.58 0.56 0.56 0.60 0.61 0.62 0.64 0.64 0.66 0.74 0.81 0.84
1.05 1.05 0.97 0.91 0.87 0.84 0.86 0.87 0.88 0.89 0.87 0.80 0.76 0.74 0.74 0.79 0.81 0.79 0.79 0.78 0.74 0.69 0.65 0.62 0.59 0.57 0.56 0.57 0.58 0.56 0.56 0.56 0.56 0.56 0.54 0.54 0.54 0.54 0.61 0.70 0.74 0.77
1.01 0.99 0.97 0.91 0.89 0.88 0.89 0.86 0.84 0.83 0.83 0.81 0.78 0.76 0.74 0.75 0.77 0.76 0.76 0.76 0.72 0.67 0.63 0.58 0.56 0.54 0.54 0.54 0.54 0.52 0.54 0.54 0.55 0.53 0.51 0.50 0.51 0.54 0.63 0.72 0.70 0.69
1.04 0.99 0.96 0.92 0.89 0.87 0.86 0.85 0.82 0.81 0.83 0.80 0.78 0.77 0.75 0.73 0.74 0.74 0.75 0.73 0.70 0.65 0.57 0.54 0.54 0.55 0.55 0.54 0.54 0.53 0.50 0.49 0.51 0.52 0.50 0.49 0.49 0.54 0.61 0.69 0.69 0.66
1.01 0.98 0.96 0.95 0.90 0.90 0.87 0.84 0.81 0.82 0.81 0.80 0.78 0.74 0.72 0.70 0.71 0.72 0.74 0.72 0.69 0.63 0.55 0.54 0.56 0.56 0.58 0.57 0.55 0.52 0.50 0.49 0.50 0.52 0.52 0.52 0.52 0.52 0.57 0.63 0.65 0.63
1.01 1.01 1.03 1.01 0.92 0.89 0.84 0.80 0.80 0.80 0.79 0.77 0.72 0.72 0.71 0.69 0.69 0.71 0.73 0.72 0.67 0.63 0.59 0.60 0.60 0.61 0.62 0.60 0.57 0.55 0.54 0.54 0.52 0.52 0.53 0.55 0.56 0.56 0.57 0.59 0.59 0.58
1.07 1.05 1.03 1.01 0.92 0.84 0.79 0.79 0.81 0.80 0.79 0.73 0.71 0.71 0.72 0.70 0.69 0.70 0.71 0.70 0.67 0.65 0.64 0.65 0.66 0.66 0.67 0.65 0.64 0.63 0.62 0.61 0.60 0.58 0.56 0.56 0.58 0.60 0.62 0.62 0.61 0.60
1.08 1.09 1.04 0.99 0.90 0.83 0.78 0.80 0.82 0.81 0.79 0.73 0.72 0.72 0.70 0.71 0.70 0.70 0.70 0.70 0.68 0.66 0.67 0.68 0.69 0.70 0.71 0.72 0.72 0.72 0.72 0.72 0.71 0.67 0.64 0.61 0.60 0.62 0.65 0.65 0.64 0.63
1.08 1.11 1.06 0.99 0.91 0.83 0.79 0.83 0.83 0.82 0.80 0.76 0.73 0.71 0.70 0.70 0.71 0.72 0.72 0.70 0.66 0.66 0.69 0.70 0.72 0.76 0.78 0.81 0.83 0.84 0.83 0.83 0.83 0.82 0.79 0.76 0.71 0.68 0.67 0.67 0.66 0.65
1.10 1.11 1.07 1.03 0.93 0.84 0.82 0.86 0.86 0.82 0.80 0.78 0.76 0.71 0.70 0.70 0.70 0.71 0.70 0.67 0.68 0.71 0.74 0.77 0.80 0.82 0.84 0.86 0.88 0.90 0.90 0.89 0.88 0.88 0.87 0.86 0.84 0.83 0.81 0.77 0.71 0.66
1.14 1.12 1.11 1.07 0.99 0.92 0.91 0.89 0.87 0.84 0.82 0.80 0.78 0.76 0.70 0.69 0.72 0.72 0.73 0.72 0.73 0.77 0.79 0.82 0.84 0.85 0.86 0.88 0.91 0.94 0.94 0.91 0.89 0.89 0.89 0.89 0.89 0.89 0.90 0.91 0.89 0.82
1.14 1.17 1.17 1.13 1.08 1.03 0.99 0.94 0.91 0.89 0.87 0.87 0.85 0.79 0.69 0.66 0.71 0.73 0.75 0.76 0.76 0.79 0.82 0.84 0.84 0.84 0.86 0.87 0.88 0.91 0.93 0.91 0.89 0.90 0.92 0.93 0.94 0.95 0.95 0.95 0.95 0.95
1.20 1.18 1.20 1.18 1.13 1.09 1.05 1.01 0.97 0.95 0.94 0.92 0.87 0.80 0.70 0.65 0.70 0.73 0.75 0.76 0.78 0.79 0.80 0.82 0.83 0.85 0.87 0.86 0.84 0.87 0.91 0.90 0.91 0.92 0.95 0.96 0.96 0.97 0.99 0.99 0.98 0.99
1.10 1.14 1.19 1.19 1.18 1.14 1.09 1.02 0.98 0.97 0.94 0.91 0.89 0.83 0.74 0.67 0.68 0.73 0.77 0.78 0.76 0.77 0.80 0.81 0.83 0.86 0.87 0.88 0.87 0.87 0.90 0.92 0.95 0.97 0.99 0.99 0.98 0.97 0.97 0.98 0.97 0.96
1.12 1.08 1.06 1.06 1.08 1.11 1.06 1.05 1.00 0.98 0.95 0.94 0.94 0.88 0.80 0.71 0.67 0.68 0.72 0.76 0.77 0.78 0.79 0.81 0.85 0.86 0.87 0.87 0.87 0.89 0.91 0.92 0.93 0.97 1.01 1.01 1.00 0.99 0.96 0.98 0.99 0.97
1.10 1.07 1.10 1.12 1.11 1.10 1.09 1.07 1.03 0.99 0.96 0.98 0.98 0.92 0.85 0.77 0.69 0.67 0.70 0.74 0.78 0.81 0.81 0.82 0.86 0.87 0.87 0.88 0.87 0.88 0.91 0.93 0.94 0.96 0.97 0.97 0.98 0.97 0.97 0.97 0.96 0.95
1.04 1.05 1.07 1.09 1.08 1.08 1.07 1.05 1.03 1.03 1.01 1.01 1.00 0.97 0.90 0.80 0.73 0.72 0.73 0.77 0.79 0.80 0.81 0.84 0.85 0.87 0.86 0.87 0.86 0.85 0.87 0.89 0.90 0.92 0.92 0.92 0.93 0.94 0.95 0.95 0.95 0.94
1.01 1.04 1.02 1.04 1.07 1.06 1.06 1.05 1.05 1.05 1.06 1.04 1.05 1.04 0.95 0.86 0.80 0.76 0.77 0.79 0.81 0.81 0.82 0.85 0.86 0.87 0.88 0.87 0.84 0.83 0.86 0.89 0.89 0.88 0.89 0.90 0.90 0.90 0.91 0.92 0.93 0.92
0.99 1.01 1.01 1.02 1.03 1.03 1.01 0.99 0.99 1.00 1.02 1.02 1.03 1.00 0.94 0.88 0.84 0.80 0.80 0.79 0.77 0.78 0.79 0.82 0.86 0.87 0.87 0.85 0.83 0.84 0.87 0.89 0.89 0.88 0.87 0.87 0.89 0.89 0.88 0.88 0.89 0.91
0.96 0.95 0.95 0.97 0.98 0.98 0.97 0.98 0.99 0.99 0.98 1.00 0.99 0.98 0.96 0.93 0.92 0.92 0.91 0.86 0.79 0.76 0.78 0.82 0.85 0.87 0.85 0.84 0.85 0.86 0.89 0.90 0.90 0.88 0.86 0.87 0.88 0.90 0.88 0.89 0.89 0.89
0.91 0.91 0.91 0.91 0.92 0.91 0.91 0.91 0.94 0.98 1.01 1.02 0.99 0.97 0.95 0.94 0.95 0.96 0.95 0.93 0.91 0.88 0.87 0.87 0.87 0.89 0.87 0.86 0.87 0.90 0.91 0.93 0.93 0.92 0.89 0.87 0.88 0.89 0.89 0.89 0.89 0.90
0.85 0.86 0.86 0.87 0.88 0.88 0.90 0.92 0.95 0.97 0.98 1.01 0.98 0.96 0.95 0.96 0.97 0.96 0.95 0.95 0.93 0.92 0.92 0.89 0.88 0.90 0.92 0.94 0.94 0.95 0.96 0.96 0.97 0.94 0.91 0.89 0.89 0.90 0.91 0.91 0.92 0.93
0.80 0.81 0.82 0.83 0.84 0.87 0.89 0.91 0.94 0.96 0.99 1.02 1.01 1.01 0.99 1.00 1.00 0.97 0.97 0.98 0.99 0.98 0.98 0.94 0.93 0.96 0.97 0.96 0.97 0.97 0.96 0.96 0.97 0.95 0.92 0.90 0.89 0.90 0.93 0.93 0.94 0.95
0.78 0.79 0.80 0.80 0.80 0.82 0.85 0.88 0.91 0.95 0.97 0.99 1.00 1.01 1.00 1.00 0.99 0.98 0.96 0.96 0.97 0.97 0.96 0.98 0.96 0.97 0.96 0.93 0.92 0.94 0.96 0.98 0.98 0.95 0.91 0.92 0.92 0.90 0.89 0.92 0.94 0.95
Wind_Speed
15 15 15 14 14 14 14 13 13 12 11 10 9 9 9 9 8 8 7 6 6 5 5 5 6 6 7 7 7 7 7 7 6 6 6 6 7 7 7 7 7 7
16 15 15 14 14 14 14 13 12 12 11 10 9 9 9 8 8 8 7 6 6 5 5 6 6 7 7 7 7 7 7 6 6 5 5 5 5 6 7 7 7 7
16 16 16 15 15 14 14 13 12 12 11 10 9 9 9 8 8 8 7 6 6 5 5 6 6 6 7 7 7 7 7 6 5 5 5 5 5 5 6 6 7 7
16 17 16 16 15 15 14 13 12 12 11 10 10 9 9 8 8 8 7 7 6 6 6 6 6 6 6 6 7 7 6 6 6 5 5 5 5 5 5 5 6 6
16 17 16 16 15 15 14 13 13 12 12 11 10 10 9 9 9 9 8 7 7 6 6 6 6 6 6 6 6 6 6 6 6 5 5 5 5 5 5 5 5 5
16 16 16 16 15 15 14 14 13 13 12 11 11 10 10 10 10 10 9 8 8 7 7 6 6 6 6 6 6 6 6 6 6 6 5 5 5 4 5 5 5 5
16 16 16 16 16 16 15 14 14 13 12 11 11 11 11 11 11 11 10 9 9 8 8 7 6 6 6 6 6 6 6 6 6 6 6 6 5 4 5 5 6 6
17 17 17 17 17 16 16 15 15 14 13 12 12 12 11 11 11 10 10 9 9 9 8 7 7 7 7 6 6 6 6 6 6 7 7 6 6 5 5 5 6 6
18 18 18 18 17 17 16 16 15 14 14 13 13 13 12 11 11 11 10 9 9 9 8 8 8 8 7 7 7 7 7 6 6 7 7 7 7 7 7 6 7 7
19 19 19 19 18 17 16 16 15 15 14 14 14 13 12 12 12 11 11 10 10 9 9 8 8 8 8 8 8 8 8 8 8 8 8 8 8 8 8 8 8 8
19 19 19 19 18 17 17 16 15 15 15 14 14 13 13 13 12 12 12 11 11 11 10 10 9 9 10 10 9 9 9 9 9 9 9 9 9 9 9 9 9 9
19 19 19 19 19 18 17 16 15 15 14 14 14 13 13 13 13 12 12 12 12 12 11 11 11 11 11 11 11 10 10 10 10 10 10 10 10 9 9 9 9 10
19 19 20 19 19 19 18 16 15 15 15 14 14 14 14 13 13 13 12 12 12 12 12 12 12 12 12 12 12 11 11 11 11 11 11 11 11 10 10 9 9 10
18 20 20 20 20 20 19 17 16 16 16 15 15 14 15 15 14 13 13 13 13 13 13 13 13 13 13 13 13 12 12 12 12 12 12 12 12 11 11 10 10 10
17 19 21 21 21 20 19 18 17 17 17 17 16 15 15 16 16 15 14 14 14 14 14 14 14 13 13 14 13 13 13 13 13 13 13 13 12 12 12 12 12 12
15 17 20 22 22 20 19 19 18 18 18 18 17 16 16 16 16 16 15 15 14 14 14 15 14 14 14 15 14 14 13 14 13 13 13 13 13 13 13 13 14 14
12 13 16 19 20 20 20 20 19 18 18 18 18 17 17 16 16 16 16 16 15 15 15 15 15 15 15 15 15 15 14 14 14 14 14 14 14 14 14 15 15 15
11 11 12 15 16 17 17 18 18 17 17 17 17 17 17 16 16 16 17 17 16 16 16 17 17 17 16 16 16 16 16 15 15 15 15 15 15 15 15 15 15 15
10 11 12 13 14 15 15 16 16 16 16 16 16 17 17 17 17 16 16 17 17 17 18 18 18 18 17 17 18 18 18 17 17 17 17 17 17 16 15 15 15 16
9 10 11 12 13 14 14 15 15 16 16 16 17 17 17 18 18 17 17 17 17 18 18 19 19 18 18 17 18 19 19 19 19 19 19 18 18 17 17 17 17 17
9 9 10 12 13 13 14 15 15 16 16 16 17 17 18 18 18 19 19 19 19 19 20 19 19 18 18 18 19 19 20 21 21 20 20 20 19 19 19 19 19 19
9 9 10 11 12 13 14 15 16 16 16 17 17 18 18 18 19 20 20 20 21 21 21 21 20 19 20 20 21 21 21 22 22 22 22 22 21 21 21 21 21 21
8 9 10 11 12 13 14 15 16 16 17 17 18 19 19 20 20 20 20 20 21 21 22 21 21 21 21 22 23 23 23 24 24 24 24 24 24 24 24 23 23 23
9 10 10 11 12 13 14 14 15 16 17 18 19 20 20 20 20 20 20 21 21 22 22 22 22 23 23 23 24 25 25 26 26 26 26 26 26 26 25 25 25 25
9 10 11 11 12 13 14 15 16 17 18 19 19 20 20 20 20 20 21 22 22 23 23 24 24 24 25 25 25 26 27 27 27 27 27 27 27 27 27 27 27 26
10 11 11 12 12 13 14 15 16 17 18 19 19 19 19 20 20 21 22 22 23 23 24 24 25 26 26 27 27 28 29 29 29 29 29 29 29 29 29 29 29 28
Wind_Direction
201 203 203 202 204 205 203 202 203 205 208 212 215 221 226 231 231 230 231 234 239 247 250 245 239 238 240 241 242 245 246 246 247 247 245 242 239 237 236 234 231 229
202 204 204 204 205 204 203 204 206 208 210 213 219 225 229 231 227 226 229 234 244 252 253 249 244 242 242 243 243 244 245 245 245 245 244 243 241 238 239 238 233 229
204 206 206 206 207 206 206 209 212 213 214 217 222 226 229 228 224 223 229 238 247 254 253 249 246 244 242 241 242 243 244 244 246 246 244 246 246 242 241 239 233 228
206 208 208 209 209 209 210 213 215 216 217 221 223 226 229 226 222 225 233 241 247 252 250 246 245 243 239 238 239 240 242 241 243 244 242 244 246 243 240 235 229 226
208 209 210 210 210 211 213 215 216 217 219 223 224 225 227 224 222 227 233 240 247 251 249 245 242 240 238 238 238 239 240 239 239 239 237 240 240 239 238 231 225 224
211 211 211 211 211 212 214 216 218 219 221 224 224 225 225 223 225 229 233 240 247 251 248 242 237 236 235 236 237 239 240 238 237 235 235 239 239 239 239 233 230 231
212 213 213 212 212 213 215 217 219 221 222 224 225 225 226 225 227 231 235 241 247 248 244 238 233 231 231 233 235 236 237 237 237 235 235 237 237 239 243 241 240 241
214 215 214 213 213 214 217 219 220 222 224 225 225 225 226 226 227 230 233 238 242 245 242 236 233 231 231 234 234 234 234 236 237 235 235 235 234 237 241 242 242 241
217 216 215 215 214 216 218 219 221 223 225 225 225 226 228 229 229 229 230 235 240 242 240 235 234 234 236 237 237 236 236 237 238 237 238 238 238 239 241 242 241 241
219 217 216 216 217 217 217 217 220 223 225 225 225 227 231 232 231 231 233 237 240 238 236 235 235 237 240 242 241 240 240 241 243 243 244 244 245 245 246 245 244 243
220 218 217 217 218 218 217 217 220 223 224 225 226 229 232 232 231 232 235 236 235 232 231 234 237 240 243 244 244 243 243 244 245 245 247 249 251 252 251 249 247 245
220 218 217 217 218 218 217 218 221 224 225 226 228 230 230 230 230 232 234 234 232 231 232 236 240 243 243 243 244 245 245 245 245 245 247 251 254 255 254 253 251 249
221 220 219 218 218 217 217 219 221 223 225 228 230 230 228 229 231 233 234 234 234 235 237 240 243 245 245 243 243 245 247 247 247 247 249 252 254 256 256 255 253 250
225 223 221 220 218 217 217 220 222 223 227 230 232 231 230 231 235 237 238 239 239 240 242 243 244 248 248 244 244 245 246 248 248 249 251 252 254 256 257 257 255 253
228 225 223 220 218 218 218 221 223 224 227 230 231 232 233 236 239 240 239 240 241 242 245 246 248 251 251 247 245 245 245 246 246 248 250 252 254 258 259 259 259 258
227 227 224 220 219 220 221 222 224 225 226 228 229 232 235 238 240 239 238 239 241 243 246 248 252 255 252 248 246 244 243 244 244 247 250 253 256 260 261 261 261 261
225 225 222 219 221 224 225 225 226 227 227 228 230 232 234 235 236 237 238 240 243 245 246 247 251 253 250 247 246 243 242 243 245 248 252 254 257 260 262 262 260 260
223 221 218 217 221 224 223 223 226 228 229 230 231 232 232 233 235 238 241 243 245 246 246 246 250 252 249 246 246 244 243 244 246 249 252 255 257 259 261 261 260 261
223 222 219 219 221 221 221 223 227 229 230 231 232 233 233 235 238 241 244 246 248 248 247 247 251 254 251 248 247 247 246 246 248 249 252 255 257 258 259 259 260 262
225 224 221 222 223 224 226 229 229 230 232 233 234 236 238 240 241 243 246 249 251 250 248 249 252 254 253 251 250 249 249 249 249 250 252 255 257 258 260 261 263 265
226 225 224 226 228 229 232 234 234 234 236 236 236 239 241 243 244 247 249 250 250 249 250 252 254 254 252 251 252 252 252 251 249 250 252 254 256 259 262 264 265 267
235 234 234 234 235 236 238 238 239 240 241 242 242 243 244 246 249 252 253 252 250 251 253 256 256 254 252 253 254 256 256 253 251 251 252 254 257 260 263 265 267 268
244 244 245 245 243 243 244 242 242 243 245 246 247 248 249 251 253 254 254 253 253 253 255 256 255 255 255 255 256 257 257 255 252 252 253 255 258 262 264 265 266 266
247 247 248 248 248 249 248 247 247 247 249 249 250 252 253 254 254 254 255 255 254 254 254 255 257 258 257 257 258 258 257 256 254 254 255 257 259 262 264 265 265 265
253 252 252 252 253 254 253 253 253 252 252 252 252 253 254 254 254 256 257 257 256 254 254 256 258 260 260 260 259 258 258 258 257 256 256 258 260 262 263 265 265 264
256 256 256 257 257 258 258 258 257 257 256 255 255 254 254 255 256 257 258 258 257 256 256 258 261 263 264 263 262 260 258 258 257 257 258 259 260 262 262 263 264 263